Theta_e
281 281 281 281 283 286 287 286 285 281 283 287 284 288 287 289 289 287 285 288 289 289 290 291 292 294 295 296 298 299 303 308 314 319 321 322 324 325
280 279 279 279 280 281 285 286 287 285 281 287 286 286 286 286 287 285 285 285 287 287 289 289 291 291 293 293 294 295 297 300 304 309 312 317 323 323
279 279 278 278 277 278 280 282 286 286 283 287 286 287 286 282 282 283 285 283 283 286 287 288 288 289 290 290 291 292 292 294 297 300 304 307 310 316
278 278 277 279 276 276 274 280 281 286 285 281 284 285 283 284 283 280 284 285 282 284 285 286 287 288 289 289 289 290 290 290 291 293 296 298 301 305
278 277 276 276 274 273 273 272 274 281 280 276 273 277 281 278 280 283 281 280 283 284 283 284 286 286 287 288 288 288 289 289 289 289 290 291 294 296
279 278 276 275 271 272 274 270 274 274 274 273 272 273 274 276 276 277 279 278 277 281 282 282 284 285 286 286 288 288 288 288 288 288 288 287 288 289
279 279 279 280 281 278 274 270 272 271 271 271 269 268 267 271 270 273 274 279 274 275 278 279 279 280 282 284 286 288 287 287 287 287 287 286 285 286
276 276 278 280 280 280 280 279 275 270 267 269 267 265 263 266 268 272 269 270 270 275 273 275 278 277 279 283 286 286 287 287 287 286 286 285 284 284
275 276 277 279 278 277 279 279 279 279 277 273 270 267 268 267 271 275 273 272 271 273 275 273 276 274 277 281 284 285 285 287 286 285 284 284 283 282
265 265 268 268 274 277 276 274 271 272 273 274 267 266 268 271 273 276 276 275 274 272 272 274 273 272 275 275 282 283 283 285 285 284 283 282 282 282
264 263 263 263 278 279 269 265 264 264 277 280 279 279 278 278 276 274 270 275 270 265 267 267 271 268 272 271 274 279 281 282 283 282 281 280 279 278
269 269 277 271 279 278 269 267 265 264 263 263 264 266 266 268 275 266 266 266 261 263 264 267 267 268 265 269 271 272 272 278 280 282 281 279 277 274
271 268 268 278 279 278 275 266 267 263 264 261 260 260 260 260 262 262 258 263 259 258 265 264 263 262 263 266 266 269 269 270 271 273 280 280 279 275
269 268 268 278 278 278 272 278 278 266 262 261 260 261 261 261 261 262 261 260 259 263 263 263 263 261 259 259 260 265 264 269 270 271 274 275 276 277
271 271 277 278 278 275 278 277 268 266 262 261 260 260 260 263 264 266 269 271 270 269 270 267 267 262 263 257 260 260 262 265 268 268 270 271 268 266
273 272 269 270 265 264 268 268 265 264 264 262 262 263 267 268 269 270 269 269 268 268 272 271 269 269 264 265 265 261 264 262 265 265 268 269 270 270
266 266 266 267 267 268 267 267 267 268 266 263 264 265 267 269 270 270 270 269 265 264 264 268 271 272 268 266 262 261 263 263 264 267 268 266 267 269
268 263 260 260 263 266 265 264 263 264 265 266 265 267 267 267 268 269 269 266 265 266 265 265 264 266 269 268 270 263 261 263 264 267 268 263 264 268
265 263 261 262 265 269 268 266 263 263 267 266 264 263 265 267 267 267 267 267 267 267 266 267 265 262 258 256 265 273 263 263 264 264 266 265 262 265
268 266 265 266 269 270 269 268 266 266 266 265 261 259 258 263 263 265 265 261 264 267 267 267 265 264 259 257 257 263 273 264 262 261 263 265 267 272
269 271 270 271 270 271 268 266 265 264 262 259 259 260 254 262 261 262 263 261 262 267 265 265 266 267 267 266 259 261 265 272 271 266 267 262 261 263
270 272 272 271 270 268 265 264 261 261 260 261 255 253 253 258 258 259 258 260 264 264 265 266 268 268 267 265 261 256 263 264 270 271 271 270 260 256
270 271 270 269 269 268 267 265 266 264 261 261 260 257 251 258 260 260 260 262 264 263 264 263 265 265 265 265 262 260 262 261 264 264 265 269 269 270
Wind_Speed
5 6 4 3 3 2 2 2 2 2 2 3 4 5 6 5 10 7 10 21 25 27 27 28 31 31 32 35 35 36 36 34 31 13 4 5 4 2
5 7 5 3 3 3 3 2 2 1 3 3 3 3 5 6 9 7 9 17 23 26 28 30 30 31 32 33 36 36 36 37 36 33 30 24 6 12
7 6 5 4 2 3 3 2 2 2 3 1 2 3 2 4 5 6 6 7 8 24 26 29 30 31 32 34 33 35 36 38 37 37 35 35 34 23
6 6 4 1 2 4 3 4 3 4 1 2 3 2 4 8 2 4 6 7 7 19 23 26 30 31 32 33 32 34 36 37 39 39 37 37 36 35
6 5 2 1 2 2 2 3 3 4 4 3 3 2 2 3 4 2 5 5 7 17 19 23 26 29 29 30 31 32 34 34 35 37 38 37 36 35
6 5 3 3 2 2 5 3 3 5 4 3 2 3 2 3 3 3 3 4 6 8 14 18 21 25 29 29 31 29 29 31 31 32 34 34 34 35
5 3 4 6 12 9 5 3 5 4 3 3 3 2 3 4 3 4 2 2 3 6 7 9 9 10 13 21 23 27 27 27 27 29 30 31 32 31
6 3 2 8 10 14 17 17 10 5 3 2 1 1 4 3 3 3 2 3 3 5 5 8 9 10 10 11 26 27 23 23 25 27 28 30 28 29
4 4 4 4 7 6 12 14 13 13 10 3 2 1 2 3 3 4 3 2 2 5 3 6 6 8 9 11 24 26 24 24 24 27 28 27 28 28
4 3 3 3 4 6 5 5 3 2 0 3 3 2 3 5 3 2 1 3 2 3 5 3 3 5 6 8 23 24 25 23 23 23 23 24 26 27
3 3 4 4 11 11 6 5 3 4 5 8 8 12 13 17 11 1 2 2 2 3 4 2 3 2 6 6 8 21 24 24 21 23 23 23 21 20
2 2 8 4 11 9 5 5 4 2 2 4 5 5 6 7 14 6 1 3 2 3 4 3 3 2 4 4 6 8 8 21 21 20 20 21 20 8
3 2 2 10 11 10 7 4 4 4 1 2 2 3 3 4 4 4 4 3 3 0 4 3 2 3 3 1 3 5 7 8 8 9 16 19 19 14
5 3 3 12 11 9 3 4 6 5 3 3 3 3 3 3 2 2 3 2 1 3 5 3 2 2 2 3 3 5 4 7 6 7 6 13 17 17
5 8 10 11 11 6 7 7 5 3 3 2 1 2 3 3 1 1 3 3 3 3 3 3 4 2 4 2 0 3 3 4 6 5 5 6 3 2
10 5 4 4 2 1 2 3 3 3 3 2 1 2 2 3 3 0 1 0 2 4 6 5 5 4 3 3 3 2 4 3 4 4 3 3 5 6
6 3 2 2 1 1 2 2 2 3 3 1 2 2 2 2 2 2 2 2 3 1 3 3 4 4 3 4 3 2 2 3 3 3 4 3 3 5
3 3 3 3 3 2 2 1 1 3 2 2 2 2 1 1 2 2 2 2 2 1 1 2 2 3 3 3 4 1 1 1 3 3 2 2 3 4
3 2 3 4 4 5 5 3 3 1 2 3 2 1 1 2 2 2 2 2 2 1 0 2 2 3 3 1 3 1 2 1 3 3 2 1 2 4
3 3 3 4 3 5 5 3 3 3 2 2 3 2 2 2 2 2 2 1 2 1 1 2 2 1 3 4 3 3 7 1 1 2 3 2 3 8
3 2 3 4 3 4 4 4 4 3 3 3 2 2 1 2 2 2 2 3 2 1 2 2 2 3 1 3 4 4 4 12 6 2 2 1 2 2
3 4 4 4 5 6 5 4 3 3 3 3 2 2 1 2 2 2 2 2 1 1 2 2 4 4 3 3 1 3 2 4 7 12 11 10 1 2
3 4 5 5 5 6 5 5 4 3 3 4 3 2 2 1 0 1 2 1 3 2 2 2 2 3 3 2 1 2 3 3 3 3 2 13 14 12
Wind_Direction
90 73 66 32 339 324 329 316 330 314 306 54 357 27 352 5 351 7 1 5 15 16 12 15 18 20 25 27 29 29 31 33 31 28 228 201 177 53
77 71 49 19 339 344 336 342 285 346 284 36 39 358 19 6 5 4 19 12 8 15 18 19 21 21 29 31 32 33 35 38 38 40 44 40 163 119
70 67 51 27 346 353 352 343 345 307 285 126 356 18 28 1 359 356 4 9 5 18 19 24 23 26 30 32 31 35 37 39 41 41 44 49 46 50
86 73 40 43 14 18 4 14 359 327 292 350 23 349 25 350 340 344 358 13 12 21 21 24 29 28 28 36 33 35 37 37 39 41 41 46 47 48
101 92 50 50 40 18 29 22 336 20 29 60 320 317 324 21 336 345 10 351 17 19 24 22 26 33 35 36 38 39 40 43 43 41 41 42 45 48
118 126 180 112 108 59 56 16 34 50 32 30 5 344 337 314 324 345 345 29 10 11 18 24 22 28 34 35 37 44 45 49 49 51 51 47 47 48
133 167 182 117 88 91 84 41 55 57 43 43 24 354 341 344 340 313 299 309 28 12 2 13 13 12 24 30 34 39 51 52 51 57 60 56 54 52
138 131 77 100 88 87 83 82 86 84 56 74 342 16 291 273 288 305 328 12 353 16 353 16 8 19 10 27 36 40 50 58 60 61 63 61 61 57
132 156 149 123 116 101 92 83 83 86 89 104 78 342 323 269 287 325 19 52 28 340 324 19 4 21 9 14 32 32 42 44 65 64 63 59 59 58
123 145 138 154 151 131 113 85 49 348 42 102 116 254 241 278 260 270 314 121 122 29 358 58 354 31 17 12 30 32 33 43 56 59 61 56 52 53
162 164 144 165 141 131 104 96 44 5 46 81 78 55 35 39 38 45 16 223 30 329 353 90 321 339 24 9 13 33 33 35 50 57 55 56 58 55
223 212 149 158 136 139 123 126 101 253 62 16 360 5 16 23 42 50 22 93 110 10 293 69 329 346 15 345 12 19 15 27 33 44 62 55 52 50
171 200 247 144 144 143 135 133 182 155 168 92 7 353 8 14 359 10 41 106 106 232 275 124 349 345 77 309 338 16 23 10 17 17 26 59 54 62
186 214 192 144 138 132 128 130 120 113 107 60 30 338 350 346 303 324 356 36 140 168 298 92 84 84 86 26 351 341 355 18 19 22 29 46 44 42
169 177 162 142 140 116 129 97 81 95 99 68 31 283 236 253 249 328 338 341 1 3 18 40 90 51 65 101 126 324 7 346 11 16 25 24 3 354
168 168 136 108 56 105 57 63 85 109 125 148 186 258 303 19 18 30 131 358 56 5 29 35 64 83 75 46 80 7 356 25 335 348 358 8 9 4
124 88 77 77 110 32 51 79 79 76 87 39 51 31 10 15 18 352 30 33 82 34 352 353 21 77 90 135 56 19 2 359 330 333 10 359 346 358
106 136 148 167 182 183 162 137 37 95 103 103 58 36 19 37 62 24 45 58 78 62 43 330 355 26 26 356 115 164 346 301 307 325 332 24 334 329
130 172 170 181 204 176 167 164 175 181 139 102 98 62 16 45 78 58 34 31 34 80 310 336 33 84 68 358 292 256 156 282 320 333 305 260 246 294
161 171 193 184 176 156 161 159 129 119 111 112 93 76 34 111 71 69 62 52 29 42 66 1 23 78 145 201 220 284 335 145 218 284 314 312 282 309
190 182 180 173 145 143 139 138 147 152 145 130 118 108 46 89 59 70 79 54 65 69 82 43 341 304 246 84 26 342 325 2 15 111 292 7 319 320
193 189 174 145 140 136 143 143 135 139 144 136 136 124 113 98 101 108 98 88 55 59 78 25 19 14 31 58 107 256 297 331 10 10 17 25 129 290
192 165 153 147 145 148 154 161 154 155 140 144 145 138 129 80 66 126 114 93 98 64 65 19 17 17 358 28 28 309 355 359 351 354 331 352 344 344